Wind_Speed
29 28 28 28 29 29 26 26 27 23 23 26 26 22 18 20 18 14 6 6 8 7 8 9 8 8 10 10 11 9 6 5 3 2 3 5 6 7 7 7 6 7 7 7 8 9 10 11 14
30 30 30 30 33 30 22 21 25 29 33 33 30 25 23 22 21 18 11 11 10 12 13 14 16 18 18 15 15 11 10 6 4 3 2 4 6 7 9 10 11 11 12 12 12 13 13 14 15
34 34 34 36 36 29 17 17 24 34 37 36 35 32 29 30 27 25 18 15 18 17 16 16 20 25 22 19 16 11 8 6 3 2 3 4 6 7 8 9 11 12 14 15 15 15 15 15 15
38 39 40 41 35 21 17 18 27 38 39 39 40 39 39 35 32 28 24 14 18 17 14 20 23 22 18 18 16 11 8 7 5 4 4 5 7 9 10 12 14 15 16 17 18 18 18 18 18
45 45 47 44 36 22 21 20 27 38 45 44 44 41 39 36 32 28 27 24 19 17 19 19 15 13 12 15 16 13 12 11 9 8 8 9 11 13 14 15 17 18 20 21 22 22 22 22 22
53 52 53 49 38 30 28 25 27 34 47 47 48 47 43 38 36 35 34 29 23 18 20 20 14 11 12 14 17 16 14 13 14 13 13 13 14 17 18 19 21 21 21 22 23 24 24 25 26
60 59 58 53 45 40 34 33 33 31 43 50 53 52 47 42 42 41 39 34 26 20 23 23 23 20 18 18 19 18 17 16 17 18 17 16 17 21 22 21 22 24 24 25 27 28 29 29 31
65 65 64 60 52 45 38 39 39 37 35 51 58 53 50 48 47 46 41 36 31 26 23 27 27 23 24 24 21 19 17 18 20 21 22 22 22 25 25 25 26 28 28 28 30 32 34 34 34
73 74 72 65 58 50 38 44 44 46 42 44 56 55 53 51 50 45 43 39 34 30 26 21 19 21 25 25 22 21 22 22 23 24 24 25 26 26 28 27 27 28 29 30 30 30 30 31 31
72 80 76 70 60 55 43 48 47 49 48 46 49 58 56 56 55 50 47 43 39 33 30 28 30 28 29 27 25 25 26 26 27 26 27 27 28 29 30 29 28 30 32 29 27 26 26 26 26
71 75 68 67 61 60 54 56 53 51 48 49 52 56 56 56 56 53 51 49 46 37 32 30 29 33 33 29 28 28 29 30 30 30 29 29 30 30 30 29 29 31 31 27 24 22 23 23 23
71 67 65 63 58 62 59 60 57 59 53 53 54 57 54 57 58 54 50 51 51 43 33 31 31 35 32 29 28 30 29 29 31 32 31 32 31 32 31 30 28 32 27 25 21 20 20 22 24
73 72 69 66 61 59 58 62 63 62 60 58 57 59 56 58 58 57 52 55 52 45 38 31 30 34 32 30 28 28 30 30 30 32 30 34 34 37 36 35 30 32 25 22 20 19 21 22 23
77 76 74 71 67 65 61 59 62 60 60 58 61 61 59 57 60 59 52 53 51 42 39 28 30 34 33 31 31 31 33 33 32 32 32 36 37 37 38 38 31 29 23 22 20 20 22 25 25
78 80 76 75 70 68 64 61 60 53 57 59 59 60 60 58 58 55 56 53 48 42 34 28 32 37 37 34 33 31 32 31 33 36 36 36 39 46 44 30 26 29 23 21 21 21 22 26 28
79 82 78 72 71 70 66 64 56 56 57 58 56 59 61 59 57 56 58 61 45 34 26 33 36 35 38 36 29 29 30 28 30 37 34 36 42 40 41 25 30 28 22 19 20 22 24 27 28
75 78 79 72 71 71 70 67 59 58 59 57 54 58 59 58 56 54 56 55 46 36 40 39 36 33 33 29 27 26 22 18 20 13 23 32 33 25 25 29 26 25 20 19 21 23 26 29 29
75 73 76 77 72 72 72 71 66 64 59 59 57 60 59 58 56 53 48 45 37 39 40 43 37 31 30 28 26 23 25 27 20 17 22 25 24 24 31 23 18 22 21 21 22 24 27 29 29
78 80 78 77 73 74 71 73 71 68 63 62 59 62 63 56 58 55 49 41 39 40 42 37 34 31 29 26 26 22 22 27 22 20 22 30 31 32 28 20 18 19 22 23 24 25 27 28 28
70 77 78 76 74 76 73 74 72 69 66 65 61 60 63 60 56 54 48 41 40 39 38 35 33 29 27 26 26 25 28 25 21 18 26 31 28 28 28 21 18 20 22 24 25 26 26 27 27
64 69 73 75 74 75 76 76 73 70 66 65 64 59 62 61 56 54 48 40 40 39 35 34 32 29 27 27 29 29 30 24 24 23 29 31 33 30 27 21 19 23 25 25 26 25 26 26 27
43 57 66 69 74 74 73 79 75 71 68 67 64 60 58 60 58 56 53 45 41 38 38 37 33 31 29 28 29 29 30 27 29 31 31 37 35 37 23 23 24 24 27 27 27 27 27 27 28
28 43 59 66 70 76 72 80 74 73 72 64 61 61 62 62 63 60 54 48 45 43 41 40 37 35 31 29 30 29 29 28 35 27 29 30 29 23 24 25 26 26 29 29 30 30 29 29 29
17 33 45 61 70 76 73 75 77 73 70 64 60 62 64 66 65 61 57 53 48 46 44 43 38 36 34 31 31 30 28 30 32 31 33 31 29 28 24 27 26 28 30 32 33 32 30 30 29
14 23 39 48 63 77 73 77 77 72 69 66 65 65 65 65 67 64 59 55 51 47 45 42 41 41 39 31 33 32 29 30 36 33 34 37 31 30 27 27 28 30 33 35 34 32 33 32 32
21 15 20 34 49 60 68 78 72 64 71 71 66 68 66 63 63 64 62 59 54 50 46 44 45 43 41 34 34 34 30 30 37 35 37 37 33 28 26 28 29 32 35 34 34 34 35 35 35
13 12 11 11 22 42 61 70 65 67 69 73 70 69 67 65 65 64 62 59 57 53 50 49 48 47 43 37 38 36 33 32 32 38 41 40 39 26 27 28 32 34 33 34 34 37 38 38 38
11 7 15 17 18 22 44 59 67 68 64 69 73 74 71 68 65 63 61 58 55 52 52 50 51 50 46 41 40 38 34 32 36 41 42 37 33 20 26 31 34 34 34 35 36 38 39 40 40
11 15 14 19 19 17 20 30 61 66 69 69 71 75 72 70 68 65 60 57 54 52 49 50 51 50 48 42 40 38 37 35 38 38 37 30 18 27 30 35 35 35 34 35 37 38 40 41 42
13 11 13 17 20 23 24 9 29 66 71 74 73 72 73 71 69 68 64 60 55 51 48 53 52 50 47 42 42 41 40 38 38 35 37 29 29 29 33 36 36 34 35 36 38 39 41 42 44
Wind_Direction
235 235 231 224 225 218 208 205 212 209 210 227 238 235 227 211 195 180 199 246 276 262 295 305 310 326 328 309 310 318 324 323 321 323 328 334 351 355 346 340 334 330 329 324 320 316 313 316 315
237 238 239 234 229 219 199 200 206 212 218 230 237 234 230 227 214 209 214 224 242 259 269 279 283 289 297 301 294 296 300 304 315 315 325 325 326 328 325 328 329 331 329 326 322 319 316 314 313
237 241 241 238 228 218 195 201 207 205 221 231 235 238 237 233 237 260 256 234 214 236 255 276 289 292 287 286 284 286 279 270 284 305 332 333 340 342 337 333 330 327 326 322 318 316 314 312 308
242 240 242 241 234 212 197 201 213 210 220 232 234 240 245 245 250 254 260 253 218 226 253 281 291 283 276 281 282 277 264 267 266 279 306 312 313 315 315 316 314 313 311 308 308 306 303 302 302
244 243 241 238 234 219 230 224 220 218 220 228 235 238 241 250 253 256 261 269 250 241 258 266 277 268 278 280 282 277 280 281 286 289 296 296 297 300 302 303 305 306 307 306 304 304 303 302 300
246 243 241 239 235 233 227 235 237 225 221 230 238 241 243 241 248 251 257 260 268 257 251 248 256 269 276 277 275 274 275 280 286 281 278 286 295 297 296 298 299 298 297 296 294 294 294 293 292
248 247 246 242 237 230 234 241 241 238 227 230 238 242 246 245 244 249 254 256 259 263 257 246 255 261 262 268 268 273 278 283 286 284 281 282 289 291 290 291 294 296 296 298 299 297 295 294 294
250 250 247 245 243 238 242 245 243 242 238 231 234 243 245 246 247 251 255 256 254 252 264 261 250 257 256 259 262 270 277 284 283 286 289 289 287 284 288 294 298 302 304 301 299 299 301 302 301
249 250 248 247 249 251 248 248 244 246 241 240 235 242 245 252 254 256 256 258 255 258 261 257 247 248 252 259 261 266 271 271 275 280 282 281 281 284 289 292 295 298 298 298 300 299 299 302 303
244 249 251 252 253 254 240 242 241 242 242 241 239 236 243 248 250 253 256 259 258 259 256 255 257 264 262 263 262 260 260 262 265 270 273 276 280 283 287 288 292 298 296 298 297 301 301 302 307
244 247 248 246 243 241 237 241 238 239 242 241 236 237 235 243 249 251 253 256 257 254 250 250 256 257 260 258 256 255 257 260 263 264 270 274 277 279 281 286 294 297 298 300 299 304 306 306 309
249 246 244 244 242 240 236 234 232 238 238 236 237 237 235 236 243 249 253 255 256 255 250 241 248 257 259 256 253 258 264 267 267 266 267 271 274 276 280 286 297 291 301 298 303 299 302 305 306
247 247 245 243 240 237 233 233 233 235 235 232 234 239 238 235 236 243 247 248 252 257 257 246 254 258 261 263 263 260 262 269 267 267 270 268 280 278 281 284 292 293 299 293 293 298 302 304 305
243 243 243 243 240 238 234 230 231 236 232 230 233 235 235 235 235 236 241 245 251 255 259 257 245 248 251 257 258 261 261 264 261 269 274 281 273 270 275 276 283 294 293 286 297 301 304 309 310
241 241 239 241 240 240 239 230 235 227 231 230 232 234 236 231 234 237 237 241 247 252 256 259 239 241 250 250 253 257 258 257 262 261 266 270 279 279 272 264 278 289 285 290 297 301 308 308 306
240 240 239 237 240 239 238 235 230 230 229 230 227 230 235 232 232 233 237 236 237 239 247 248 242 236 242 250 248 251 254 264 272 271 261 266 271 270 261 262 271 286 283 290 298 305 309 309 310
239 239 239 236 238 236 236 235 227 230 227 228 224 226 231 234 233 233 236 241 239 247 243 233 232 228 235 239 239 247 254 259 261 287 251 269 267 266 256 262 281 288 289 295 302 305 305 302 306
237 236 236 235 232 235 233 232 227 225 227 225 223 220 228 231 236 235 237 240 237 238 228 223 226 225 228 234 241 243 245 252 256 255 255 258 256 255 261 270 285 284 294 298 302 298 296 300 302
229 229 228 231 229 231 232 231 229 224 222 226 221 219 224 226 232 236 233 231 226 221 218 224 227 228 229 235 241 239 242 252 258 261 253 252 250 259 263 271 276 290 291 296 296 293 296 301 304
232 228 229 230 228 229 228 228 228 224 221 224 222 219 221 226 226 232 232 221 216 216 218 221 225 227 233 240 243 242 246 255 260 256 256 253 254 256 261 262 285 285 281 285 288 289 292 306 307
238 232 224 227 228 228 227 227 225 224 220 221 222 219 220 225 226 229 229 219 214 217 222 222 223 224 228 235 243 246 249 254 257 262 254 251 249 251 258 263 274 283 281 287 286 296 301 306 314
249 240 233 227 225 226 227 225 222 221 219 218 219 218 219 223 226 227 229 224 218 222 225 227 224 224 223 229 237 241 243 243 245 254 252 247 253 248 254 277 273 279 279 284 289 294 297 304 314
273 249 239 234 230 225 223 229 217 218 218 215 217 219 217 222 224 226 228 224 220 222 222 225 226 229 227 225 234 239 239 232 237 247 248 249 255 255 262 264 274 281 280 286 285 291 297 307 314
280 227 232 237 233 229 218 227 220 217 216 213 214 217 216 217 222 223 225 225 220 217 218 223 226 231 232 226 235 239 236 232 235 248 244 238 240 245 255 267 275 279 282 283 285 290 300 305 305
311 249 231 233 236 231 222 227 222 214 213 213 214 215 217 217 219 222 223 224 223 219 219 223 228 232 236 230 234 241 238 236 239 245 240 232 236 245 257 268 276 275 277 280 285 294 297 298 298
295 280 254 243 244 240 236 235 217 217 213 213 212 214 216 218 218 222 223 224 224 221 220 223 228 233 238 235 236 240 238 239 238 246 244 231 240 243 248 258 272 273 276 284 288 294 296 298 298
292 286 282 270 255 246 244 240 212 216 214 212 213 214 213 216 218 219 221 223 224 224 222 223 228 232 235 237 238 241 239 239 244 234 234 240 239 247 258 265 272 276 283 286 292 295 296 298 298
269 247 260 271 266 260 253 246 217 215 215 214 211 214 213 213 216 218 218 220 220 221 222 223 228 231 232 234 237 239 238 239 234 234 240 235 245 260 267 269 274 280 282 287 293 293 295 298 301
267 258 260 249 262 279 276 259 229 217 216 213 213 213 213 213 214 215 216 217 217 219 220 222 224 229 231 233 235 235 237 241 238 240 256 232 267 263 268 271 276 278 284 290 293 294 296 298 302
275 275 273 267 274 278 270 185 211 227 220 213 213 211 211 211 213 213 212 214 215 216 218 221 221 225 230 232 234 236 237 235 237 239 252 274 264 267 271 272 276 283 289 293 295 297 299 303 305
Height
5871 5873 5875 5877 5881 5881 5888 5894 5895 5896 5896 5893 5893 5897 5900 5900 5902 5905 5905 5906 5908 5910 5911 5912 5913 5914 5915 5916 5916 5915 5915 5914 5913 5913 5914 5916 5916 5916 5917 5916 5916 5915 5915 5916 5916 5915 5914 5914 5914
5867 5869 5870 5871 5873 5877 5886 5890 5893 5894 5891 5890 5891 5894 5897 5899 5899 5901 5903 5905 5905 5907 5908 5909 5911 5912 5913 5914 5915 5914 5914 5914 5914 5914 5915 5916 5916 5915 5916 5916 5916 5915 5915 5915 5915 5915 5914 5913 5912
5862 5863 5865 5864 5866 5875 5884 5887 5888 5888 5886 5885 5887 5890 5893 5895 5897 5899 5900 5901 5903 5905 5905 5907 5909 5909 5910 5911 5913 5913 5912 5911 5912 5913 5914 5915 5915 5915 5915 5915 5915 5914 5914 5914 5913 5913 5912 5911 5910
5856 5857 5858 5855 5863 5875 5880 5882 5882 5882 5881 5880 5882 5885 5888 5891 5894 5897 5897 5899 5901 5903 5905 5906 5907 5907 5909 5910 5911 5911 5909 5909 5910 5912 5913 5914 5915 5914 5915 5915 5914 5913 5912 5912 5911 5910 5910 5909 5908
5848 5848 5848 5850 5859 5871 5875 5877 5877 5878 5877 5876 5877 5881 5884 5885 5888 5891 5894 5896 5899 5901 5903 5904 5905 5905 5907 5908 5909 5909 5909 5909 5910 5912 5911 5912 5912 5913 5912 5912 5911 5910 5910 5909 5909 5908 5908 5906 5904
5837 5839 5839 5843 5857 5864 5867 5871 5870 5873 5872 5873 5872 5874 5879 5884 5884 5886 5889 5893 5896 5899 5900 5901 5903 5904 5905 5906 5907 5908 5908 5909 5909 5910 5909 5910 5910 5911 5910 5909 5908 5907 5906 5905 5904 5903 5902 5901 5899
5827 5829 5831 5838 5848 5854 5861 5863 5864 5866 5866 5869 5865 5867 5874 5879 5881 5883 5885 5889 5894 5895 5897 5898 5899 5902 5903 5905 5905 5906 5907 5907 5908 5907 5907 5907 5908 5907 5906 5905 5904 5903 5902 5901 5900 5898 5897 5895 5894
5816 5817 5820 5827 5837 5847 5854 5854 5856 5858 5861 5858 5856 5863 5868 5870 5873 5877 5881 5885 5890 5892 5895 5896 5897 5898 5899 5900 5903 5904 5905 5905 5905 5904 5904 5905 5905 5904 5903 5902 5901 5901 5900 5898 5896 5895 5894 5892 5890
5803 5802 5808 5819 5829 5838 5846 5845 5847 5848 5852 5851 5852 5857 5861 5863 5867 5872 5876 5880 5885 5889 5891 5894 5894 5894 5895 5897 5900 5902 5902 5902 5901 5901 5901 5901 5901 5901 5900 5900 5899 5898 5896 5894 5892 5891 5889 5886 5885
5784 5788 5801 5811 5820 5823 5831 5832 5834 5838 5842 5845 5845 5849 5854 5857 5860 5864 5870 5874 5878 5884 5887 5889 5889 5890 5892 5894 5896 5897 5897 5897 5897 5897 5898 5897 5897 5897 5896 5895 5895 5894 5892 5890 5888 5887 5885 5883 5881
5769 5776 5790 5794 5801 5804 5813 5817 5820 5827 5834 5836 5835 5836 5848 5851 5852 5857 5862 5867 5872 5877 5881 5883 5884 5885 5886 5889 5891 5892 5892 5893 5893 5894 5894 5893 5893 5893 5891 5891 5893 5891 5890 5887 5886 5884 5884 5881 5878
5755 5765 5773 5779 5786 5788 5796 5801 5807 5813 5824 5823 5824 5826 5837 5842 5845 5850 5855 5859 5863 5869 5876 5878 5879 5879 5881 5884 5886 5887 5888 5888 5888 5889 5890 5889 5888 5887 5886 5887 5889 5886 5885 5884 5883 5882 5879 5877 5874
5743 5752 5756 5761 5768 5772 5778 5788 5790 5802 5808 5811 5815 5814 5827 5831 5838 5841 5846 5850 5855 5862 5868 5872 5873 5874 5876 5878 5880 5880 5881 5882 5883 5884 5884 5884 5885 5884 5883 5883 5884 5882 5883 5881 5879 5878 5876 5873 5870
5725 5730 5738 5745 5753 5758 5764 5772 5776 5796 5797 5801 5801 5802 5811 5820 5825 5832 5839 5845 5850 5857 5860 5865 5868 5868 5870 5872 5874 5874 5874 5876 5878 5877 5880 5880 5880 5878 5878 5879 5878 5878 5880 5877 5875 5874 5872 5869 5865
5706 5707 5718 5729 5739 5744 5751 5760 5771 5783 5784 5786 5792 5795 5800 5810 5813 5823 5833 5840 5847 5852 5855 5858 5860 5861 5862 5865 5865 5868 5868 5870 5871 5872 5874 5874 5873 5872 5872 5873 5874 5874 5875 5872 5871 5869 5866 5864 5861
5685 5691 5702 5716 5722 5729 5736 5750 5765 5769 5770 5775 5781 5784 5790 5796 5806 5815 5821 5828 5839 5844 5849 5852 5852 5855 5855 5857 5860 5861 5862 5865 5867 5868 5868 5867 5865 5864 5865 5866 5866 5869 5869 5867 5866 5863 5860 5858 5855
5667 5678 5686 5699 5702 5708 5720 5739 5750 5754 5759 5766 5772 5775 5783 5787 5796 5805 5813 5819 5833 5839 5843 5845 5845 5846 5848 5851 5853 5856 5859 5860 5862 5860 5861 5860 5859 5857 5858 5860 5863 5866 5863 5862 5860 5858 5857 5854 5850
5650 5656 5664 5675 5684 5689 5704 5718 5728 5738 5747 5755 5761 5765 5772 5782 5788 5796 5805 5814 5822 5830 5832 5831 5836 5840 5843 5845 5848 5851 5854 5854 5855 5855 5855 5854 5852 5851 5853 5855 5858 5860 5858 5857 5854 5854 5852 5849 5846
5622 5626 5634 5649 5666 5673 5688 5698 5711 5724 5736 5741 5750 5755 5762 5773 5779 5786 5797 5805 5811 5818 5823 5827 5831 5835 5837 5840 5842 5845 5848 5848 5849 5850 5851 5848 5845 5846 5850 5852 5854 5853 5853 5852 5851 5849 5846 5845 5841
5602 5612 5625 5637 5650 5657 5671 5681 5694 5710 5724 5730 5739 5746 5755 5762 5771 5778 5787 5797 5804 5811 5817 5820 5824 5829 5831 5833 5836 5839 5839 5843 5843 5845 5844 5843 5842 5842 5846 5848 5847 5847 5845 5846 5846 5844 5842 5839 5834
5592 5596 5608 5620 5632 5642 5652 5663 5680 5697 5711 5719 5728 5739 5746 5754 5763 5769 5777 5788 5795 5801 5807 5813 5817 5821 5825 5828 5830 5833 5834 5838 5839 5839 5839 5837 5837 5839 5840 5839 5842 5843 5842 5841 5840 5837 5835 5832 5828
5582 5590 5599 5604 5615 5627 5636 5643 5663 5680 5694 5704 5717 5730 5740 5746 5753 5759 5766 5776 5784 5792 5798 5803 5809 5813 5818 5822 5825 5828 5831 5834 5834 5832 5831 5830 5831 5830 5831 5832 5836 5837 5837 5835 5832 5830 5829 5825 5821
5576 5580 5588 5592 5598 5606 5622 5623 5653 5664 5678 5699 5709 5719 5729 5734 5740 5748 5758 5767 5776 5784 5791 5797 5801 5805 5812 5817 5818 5822 5825 5827 5826 5827 5826 5826 5824 5824 5827 5828 5832 5832 5830 5827 5826 5824 5822 5817 5812
5566 5567 5574 5581 5585 5585 5606 5609 5634 5652 5673 5690 5697 5704 5708 5718 5728 5740 5749 5758 5766 5774 5782 5787 5793 5798 5803 5810 5812 5816 5819 5820 5821 5822 5821 5822 5822 5823 5823 5825 5826 5825 5824 5822 5821 5818 5815 5811 5806
5564 5564 5565 5569 5572 5577 5597 5595 5615 5640 5660 5675 5679 5687 5696 5705 5717 5728 5739 5749 5757 5766 5774 5780 5785 5790 5795 5803 5806 5810 5812 5815 5814 5817 5816 5815 5815 5818 5820 5820 5820 5819 5817 5816 5815 5812 5809 5805 5800
5563 5562 5561 5562 5567 5580 5583 5572 5605 5639 5644 5654 5668 5675 5685 5697 5708 5719 5728 5739 5749 5759 5767 5772 5777 5782 5788 5796 5800 5803 5806 5809 5808 5809 5809 5807 5811 5811 5814 5815 5815 5813 5812 5811 5808 5806 5802 5798 5794
5562 5560 5561 5559 5562 5562 5566 5570 5608 5614 5627 5642 5655 5664 5675 5685 5695 5706 5717 5728 5738 5748 5758 5765 5770 5776 5781 5788 5792 5796 5799 5801 5803 5802 5802 5803 5805 5805 5808 5809 5808 5807 5806 5805 5802 5799 5796 5791 5787
5561 5560 5560 5558 5558 5558 5561 5570 5589 5604 5618 5627 5636 5645 5660 5674 5686 5697 5709 5719 5730 5740 5748 5755 5762 5768 5773 5779 5783 5788 5792 5794 5794 5794 5796 5794 5794 5795 5801 5802 5802 5801 5800 5798 5794 5792 5789 5784 5779
5558 5557 5557 5556 5556 5556 5556 5561 5587 5594 5600 5611 5622 5630 5646 5662 5677 5689 5700 5711 5721 5730 5739 5746 5752 5759 5765 5772 5777 5781 5783 5785 5786 5788 5791 5784 5785 5795 5796 5796 5796 5795 5793 5790 5788 5785 5781 5777 5772
5555 5555 5554 5552 5553 5552 5553 5558 5560 5571 5582 5595 5603 5619 5633 5649 5663 5678 5692 5702 5713 5723 5732 5737 5742 5750 5758 5764 5768 5772 5776 5778 5780 5783 5782 5777 5787 5789 5788 5790 5790 5788 5785 5783 5781 5777 5773 5769 5763